Home   Weather   Atlanta   Past weeks
Flag for USA

Past Weather in Atlanta, Georgia, USA — Yesterday and Last 2 Weeks

Now
44 °F

Mostly cloudy.


Feels Like: 42 °F
Forecast: 58 / 41 °F
Wind: 5 mph from North

Location: Fulton County Airport-Brown Field

Current Time: Jan 22, 2019 at 8:05:22 pm

Latest Report: Jan 22, 2019 at 6:53 pm


Visibility: 10 mi

Pressure: 30.42 "Hg

Humidity: 40%

Dew Point: 21 °F

Location of AtlantaLocation

Past Weather in Atlanta — Graph

°F

Atlanta Temperature Yesterday

Maximum temperature yesterday: 43 °F (at 4:53 pm)
Minimum temperature yesterday: 21 °F (at 7:53 am)
Average temperature yesterday: 31 °F

High & Low Weather Summary for the Past Weeks

 TemperatureHumidityPressure
High65 °F (Jan 8, 3:53 pm)100% (Jan 12, 9:53 pm)30.57 "Hg (Jan 12, 9:53 pm)
Low21 °F (Jan 21, 7:53 am)26% (Jan 9, 2:53 pm)29.50 "Hg (Jan 19, 5:53 pm)
Average43 °F74%30.17 "Hg
* Reported Jan 7 6:53 pm — Jan 22 6:53 pm, Atlanta. Weather by CustomWeather, © 2019

Note: Actual official high and low records may vary slightly from our data, if they occured in-between our weather recording intervals... More about our weather records

Advertising

Atlanta Weather History for the Previous 24 Hours

Scroll right to see more
 ConditionsComfort  
Time TempWeatherWind HumidityBarometerVisibility
6:53 pm
Tue, Jan 22
44 °FMostly cloudy.5 mph40%30.42 "Hg10 mi
5:53 pm44 °FOvercast.7 mph38%30.42 "Hg10 mi
4:53 pm45 °FMore clouds than sun.10 mph35%30.42 "Hg10 mi
3:53 pm45 °FMostly cloudy.8 mph35%30.43 "Hg10 mi
2:53 pm45 °FOvercast.6 mph33%30.45 "Hg10 mi
1:53 pm43 °FOvercast.9 mph29%30.47 "Hg10 mi
12:53 pm40 °FOvercast.8 mph27%30.50 "Hg10 mi
11:53 am39 °FOvercast.10 mph26%30.54 "Hg10 mi
11:24 am37 °FMostly cloudy.9 mph27%30.54 "Hg10 mi
10:53 am36 °FOvercast.10 mph28%30.57 "Hg10 mi
10:04 am35 °FOvercast.14 mph29%30.55 "Hg10 mi
8:53 am33 °FSunny.10 mph35%30.57 "Hg10 mi
7:53 am31 °FSunny.7 mph43%30.55 "Hg10 mi
6:53 am31 °FClear.5 mph43%30.54 "Hg10 mi
5:53 am32 °FClear.6 mph41%30.51 "Hg10 mi
4:53 am32 °FClear.7 mph43%30.49 "Hg10 mi
3:53 am33 °FClear.5 mph41%30.49 "Hg10 mi
2:53 am34 °FClear.5 mph40%30.47 "Hg10 mi
1:53 am35 °FClear.6 mph36%30.46 "Hg10 mi
12:53 am35 °FClear.6 mph38%30.45 "Hg10 mi
11:53 pm
Mon, Jan 21
36 °FClear.7 mph40%30.44 "Hg10 mi
10:53 pm31 °FClear.5 mph67%30.44 "Hg10 mi
9:53 pm30 °FClear.No wind69%30.43 "Hg10 mi
8:53 pm31 °FClear.No wind64%30.44 "Hg10 mi
Weather by CustomWeather, © 2019

See weather overview